Fort Campbell, KY

12:00 PM CDT on April 27, 2017 (GMT -0500)
Campbell Army Air Field

Weather History for KHOP - July, 2013

Change the Weather History Date:

Wednesday, July 24, 2013

  Actual Average Record
Temperature  
Mean Temperature 74 °F -  
Max Temperature 83 °F 86 °F 97 °F (2010)
Min Temperature 66 °F 67 °F 55 °F (2008)
Cooling Degree Days 9    
Growing Degree Days 24 (Base 50)    
Moisture  
Dew Point 66 °F    
Average Humidity 83    
Maximum Humidity 100    
Minimum Humidity 56    
Precipitation  
Precipitation 0.06 in - - ()
Sea Level Pressure  
Sea Level Pressure 29.90 in    
Wind  
Wind Speed 4 mph (NNW)    
Max Wind Speed 10 mph    
Max Gust Speed -    
Visibility 10 miles    
Events      
Averages and records for this station are not official NWS values.
T = Trace of Precipitation, MM = Missing Value Source: NWS Daily Summary

Daily Weather History Graph

Daily Weather History Graph

Search for Another Location

Airport or City:

Trip Planner

Search our weather history database for the weather conditions in past years. The results will help you decide how hot, cold, wet, or windy it might be!

Date:

Astronomy

Jul. 24, 2013 Rise Set
Actual Time 5:49 AM CDT 8:02 PM CDT
Civil Twilight 5:20 AM CDT 8:31 PM CDT
Nautical Twilight 4:44 AM CDT 9:07 PM CDT
Astronomical Twilight 4:05 AM CDT 9:46 PM CDT
Moon 9:14 PM CDT (7/24) 8:04 AM CDT (7/24)
Length of Visible Light 15h 11m
Length of Day
14h 12m
Waning Gibbous, 94% of the Moon is Illuminated
Jul 24
Waning Gibbous
Jul 29
Last Quarter
Aug 6
New
Aug 14
First Quarter
Aug 20
Full

Hourly Weather History & Observations

Time (CDT) Temp. Heat Index Dew Point Humidity Pressure Visibility Wind Dir Wind Speed Gust Speed Precip Events Conditions
12:58 AM 68.9 °F - 67.3 °F 95% 29.83 in 10.0 mi NNW 1.2 mph - 0.06 in   Light Drizzle
1:01 AM 69.8 °F - 66.2 °F 88% 29.83 in 10.0 mi North 2.3 mph - N/A   Clear
1:58 AM 69.3 °F - 67.3 °F 93% 29.81 in 10.0 mi NNW 3.5 mph - 0.00 in   Mostly Cloudy
2:58 AM 67.6 °F - 67.6 °F 100% 29.85 in 10.0 mi Calm Calm - N/A   Clear
3:58 AM 66.6 °F - 66.6 °F 100% 29.85 in 10.0 mi West 2.3 mph - N/A   Clear
4:58 AM 66.9 °F - 66.9 °F 100% 29.87 in 10.0 mi SW 4.6 mph - N/A   Clear
5:24 AM 66.2 °F - 66.2 °F 100% 29.89 in 10.0 mi WSW 4.6 mph - N/A   Mostly Cloudy
5:55 AM 68.0 °F - 68.0 °F 100% 29.90 in 10.0 mi West 4.6 mph - N/A   Overcast
5:58 AM 67.6 °F - 67.6 °F 100% 29.89 in 10.0 mi West 3.5 mph - N/A   Overcast
6:38 AM 69.8 °F - 69.8 °F 100% 29.91 in 10.0 mi West 3.5 mph - N/A   Overcast
6:44 AM 69.8 °F - 69.8 °F 100% 29.91 in 10.0 mi WNW 3.5 mph - N/A   Overcast
6:58 AM 69.1 °F - 69.1 °F 100% 29.90 in 10.0 mi NW 4.6 mph - N/A   Overcast
7:14 AM 69.8 °F - 69.8 °F 100% 29.91 in 10.0 mi North 5.8 mph - N/A   Overcast
7:51 AM 71.6 °F - 71.6 °F 100% 29.92 in 10.0 mi NNE 8.1 mph - N/A   Scattered Clouds
7:58 AM 71.4 °F - 71.4 °F 100% 29.91 in 10.0 mi NNE 9.2 mph - N/A   Scattered Clouds
8:58 AM 72.5 °F - 66.7 °F 82% 29.91 in 10.0 mi NE 9.2 mph - N/A   Clear
9:58 AM 75.2 °F - 61.2 °F 62% 29.92 in 10.0 mi East 9.2 mph - N/A   Clear
10:58 AM 76.8 °F - 64.6 °F 66% 29.92 in 10.0 mi Variable 1.2 mph - N/A   Partly Cloudy
11:58 AM 79.3 °F - 67.3 °F 66% 29.92 in 10.0 mi Variable 1.2 mph - N/A   Partly Cloudy
12:58 PM 80.4 °F 83.0 °F 67.5 °F 65% 29.92 in 10.0 mi Variable 4.6 mph - N/A   Partly Cloudy
1:58 PM 81.9 °F 84.4 °F 67.3 °F 61% 29.91 in 10.0 mi NNW 8.1 mph - N/A   Partly Cloudy
2:58 PM 82.9 °F 85.0 °F 65.8 °F 56% 29.91 in 10.0 mi NW 6.9 mph - N/A   Scattered Clouds
3:58 PM 82.4 °F 84.8 °F 66.6 °F 59% 29.90 in 10.0 mi NW 9.2 mph - N/A   Scattered Clouds
4:58 PM 81.1 °F 82.9 °F 64.9 °F 58% 29.91 in 10.0 mi NNW 10.4 mph - N/A   Clear
5:58 PM 79.3 °F - 64.4 °F 60% 29.91 in 10.0 mi NNW 10.4 mph - N/A   Clear
6:58 PM 77.2 °F - 62.6 °F 61% 29.92 in 10.0 mi North 10.4 mph - N/A   Clear
7:58 PM 73.4 °F - 62.4 °F 68% 29.94 in 10.0 mi Variable 4.6 mph - N/A   Clear
8:58 PM 71.6 °F - 61.9 °F 71% 29.94 in 10.0 mi North 3.5 mph - N/A   Clear
9:58 PM 69.6 °F - 62.8 °F 79% 29.96 in 10.0 mi NNW 2.3 mph - N/A   Clear
10:58 PM 68.4 °F - 63.1 °F 83% 29.97 in 10.0 mi NNW 4.6 mph - N/A   Clear
11:58 PM 66.6 °F - 63.3 °F 89% 29.97 in 10.0 mi North 4.6 mph - N/A   Clear